Dewpoint
21 18 20 20 21 25 23 23 23 24 25 26 26 26 27 29 29 28 29 32 34 33 37 40 44 44 46 58 61 63 67 69 69 68 67 66 64 63 63 64 63 64 64 64
22 18 19 23 21 21 22 19 19 22 25 25 25 25 28 28 28 29 29 35 35 37 39 38 39 42 51 55 62 65 69 69 69 67 67 65 62 63 61 62 62 62 62 62
15 21 19 20 21 20 20 18 17 18 24 23 22 22 23 25 28 32 33 33 37 38 38 38 37 42 58 60 64 66 69 68 68 67 67 64 61 61 60 61 63 62 62 64
10 14 21 17 19 20 18 20 19 20 21 18 22 19 22 23 25 27 28 30 32 32 32 36 37 55 59 62 63 64 68 68 68 66 64 61 60 60 60 60 62 63 62 62
9 10 10 14 16 19 19 21 19 20 17 17 18 21 20 28 27 27 29 32 34 35 37 39 42 58 61 62 63 66 67 66 66 64 62 60 58 60 61 62 61 62 61 61
14 13 10 8 8 16 17 21 20 18 17 15 17 19 18 21 24 28 30 30 30 32 36 45 57 59 61 63 65 66 66 64 64 62 62 60 60 60 59 61 61 61 61 61
21 19 12 10 9 8 15 14 16 16 16 15 16 18 20 27 28 26 27 29 37 46 53 55 57 59 61 63 64 64 64 62 62 63 60 62 59 60 59 59 60 60 61 60
15 20 23 22 9 8 8 14 15 15 16 15 17 18 20 24 28 30 29 29 49 52 53 55 57 59 61 62 63 62 61 61 62 60 62 61 60 60 61 60 60 61 60 61
27 21 25 24 23 12 9 9 15 15 19 15 18 19 21 21 23 30 28 32 48 52 54 55 56 58 61 61 61 62 61 61 61 60 62 61 61 61 61 61 60 60 60 59
28 23 22 20 20 24 14 13 16 14 14 16 17 16 19 25 24 26 31 44 49 51 53 54 56 58 60 60 61 61 61 60 61 61 61 60 61 61 60 60 60 60 60 59
25 26 22 22 19 21 19 10 13 16 17 16 17 19 25 24 28 30 35 46 48 50 53 54 56 58 59 59 60 60 60 60 59 61 59 59 59 60 59 60 60 59 59 60
34 33 28 24 25 24 26 27 14 17 15 18 21 21 31 34 34 28 37 46 48 51 52 54 56 56 57 58 59 59 59 59 58 61 60 60 60 60 60 59 60 58 56 56
34 30 26 23 19 25 27 27 15 20 25 16 18 18 22 26 35 41 44 46 48 50 51 53 54 55 56 57 57 58 57 57 58 60 59 60 60 60 60 59 60 58 57 59
37 31 28 26 27 31 32 32 32 31 19 19 22 18 21 28 37 43 45 47 48 49 51 52 52 53 55 56 56 56 55 55 57 58 58 60 60 60 60 59 59 59 58 57
36 32 30 31 30 31 30 29 30 29 29 19 18 22 25 38 41 44 45 46 46 48 50 51 52 53 54 55 54 54 54 54 55 58 59 60 60 61 60 58 57 58 58 56
39 33 33 31 30 30 26 28 29 28 30 28 18 19 34 41 43 45 44 45 46 48 49 50 51 53 53 54 52 52 52 53 57 57 59 61 61 60 59 59 60 56 57 58
27 33 32 29 32 31 25 25 26 27 30 30 16 20 40 42 43 47 45 44 45 47 48 50 51 52 53 51 50 50 52 53 57 57 59 60 60 59 59 58 55 57 58 60
25 28 33 33 33 22 25 37 29 28 31 35 26 38 42 40 45 48 49 46 46 46 47 49 51 52 51 51 50 52 52 52 55 56 57 57 57 57 57 58 58 59 58 58
27 31 32 30 30 32 34 40 39 39 42 43 40 43 49 48 45 46 48 51 49 50 48 49 52 52 50 49 50 50 50 50 51 54 53 55 55 56 58 59 59 59 59 59
32 31 33 33 28 28 37 38 41 42 40 48 43 43 44 45 43 45 47 50 50 49 51 52 52 51 49 49 50 50 49 49 50 53 53 54 55 57 57 59 59 59 60 60
34 34 32 31 31 33 39 39 40 38 41 49 44 44 45 44 45 45 46 48 50 48 50 52 52 50 49 49 50 49 48 49 50 53 54 55 57 59 60 60 59 60 61 61
33 32 33 32 31 29 40 40 40 45 48 49 43 44 45 46 47 47 47 47 48 47 49 52 52 51 51 49 50 50 48 49 51 53 55 58 59 59 60 59 60 61 60 59
33 36 32 35 34 41 43 44 47 49 48 43 43 44 45 46 46 47 48 48 48 51 48 53 52 50 50 48 48 51 48 50 52 53 57 58 57 58 59 59 59 60 60 60
36 39 34 37 39 41 44 44 44 40 39 39 40 42 43 44 46 46 48 48 49 53 54 54 52 49 50 48 49 51 50 49 52 57 56 58 58 58 59 58 59 59 60 60
37 38 37 37 40 40 42 44 43 40 39 38 39 41 43 43 45 45 45 49 46 48 53 55 51 49 50 49 49 52 48 48 54 56 56 56 58 58 58 55 54 56 56 59
36 37 36 36 41 39 39 43 42 38 38 38 39 41 42 43 44 44 45 47 48 50 51 53 54 51 50 49 48 51 48 49 54 57 56 56 58 59 58 52 51 43 43 46
Lifted_Index
10 8 7 6 6 6 6 5 4 4 3 2 2 2 2 2 2 2 2 2 2 1 1 1 1 1 -0 -2 -3 -5 -6 -7 -8 -7 -7 -7 -6 -6 -5 -4 -3 -4 -4 -4
10 8 8 8 7 7 6 5 5 4 3 2 2 2 2 3 3 2 2 2 2 1 1 2 2 1 -0 -2 -4 -5 -7 -8 -8 -7 -7 -7 -6 -6 -5 -4 -3 -3 -3 -3
10 9 9 9 8 7 6 6 5 5 4 3 3 3 3 4 4 3 3 3 2 2 2 2 2 1 -1 -2 -4 -6 -8 -8 -8 -8 -7 -7 -6 -5 -4 -3 -3 -3 -3 -3
10 10 10 9 8 7 6 6 6 5 4 3 3 3 4 4 4 4 3 3 3 3 3 3 2 0 -1 -3 -4 -6 -8 -8 -8 -7 -7 -6 -5 -4 -3 -3 -3 -3 -3 -3
10 10 9 9 9 8 7 6 5 5 4 4 3 3 4 4 4 4 3 3 3 3 3 3 1 -1 -2 -3 -5 -6 -7 -7 -7 -6 -5 -4 -3 -2 -2 -2 -2 -2 -2 -2
8 8 9 9 9 8 7 6 5 4 3 3 4 4 4 4 4 4 3 3 3 3 3 1 -0 -2 -3 -4 -5 -6 -7 -6 -6 -5 -4 -3 -2 -2 -2 -2 -2 -2 -2 -2
5 6 7 8 8 8 7 5 4 2 2 2 4 4 4 4 3 3 3 3 2 2 0 -1 -2 -3 -4 -5 -5 -6 -6 -5 -4 -3 -3 -2 -2 -1 -1 -1 -1 -1 -1 -1
2 3 5 6 7 7 6 5 4 2 1 2 4 4 3 3 3 3 3 3 1 -0 -1 -2 -2 -3 -4 -4 -5 -5 -4 -4 -3 -2 -2 -2 -1 -1 -1 -1 -1 -1 -1 -1
1 2 3 4 5 6 6 5 5 4 2 3 3 3 2 2 2 3 3 2 0 -1 -2 -2 -3 -3 -4 -4 -4 -4 -3 -2 -2 -2 -2 -2 -1 -1 -1 -1 -1 -0 -0 -0
0 1 2 2 4 5 6 5 4 4 2 2 2 2 2 1 1 2 2 1 -1 -1 -2 -2 -3 -3 -3 -3 -3 -3 -2 -2 -2 -2 -1 -1 -1 -1 -1 -1 -0 -0 -0 0
-0 1 1 2 3 4 4 4 4 3 2 2 2 1 1 1 1 1 1 -0 -1 -2 -2 -2 -2 -3 -3 -3 -3 -2 -2 -1 -1 -1 -1 -1 -1 -1 -0 0 0 0 0 0
-0 0 1 1 2 2 3 3 3 3 2 3 2 1 1 0 -0 -0 -0 -1 -1 -2 -2 -2 -2 -3 -2 -2 -2 -2 -1 -1 -1 -1 -1 -1 -1 -0 -0 0 0 1 1 1
-0 0 1 1 1 1 1 2 2 2 2 2 2 1 1 0 -1 -1 -1 -1 -2 -2 -2 -2 -2 -2 -2 -1 -1 -1 -1 -1 -1 -1 -1 -1 -1 -0 -0 0 1 1 1 1
0 0 1 1 0 0 0 1 1 1 2 3 2 1 1 -0 -1 -2 -2 -2 -2 -2 -2 -2 -2 -1 -1 -1 -1 -1 -0 -0 -0 -1 -1 -1 -1 -0 0 0 1 1 1 1
0 0 0 0 1 0 -0 0 1 2 4 4 3 1 0 -1 -2 -2 -2 -2 -2 -2 -2 -2 -1 -1 -1 -1 -0 -0 0 0 -0 -1 -1 -1 -1 -0 0 0 1 1 1 1
1 0 0 0 1 1 0 0 1 3 5 4 3 1 -0 -1 -2 -3 -2 -2 -2 -2 -2 -1 -1 -1 -1 -1 0 1 1 0 -0 -1 -1 -1 -1 -0 -0 0 0 1 0 0
1 1 0 0 0 1 0 -0 1 2 4 3 2 1 -0 -1 -2 -2 -2 -2 -2 -2 -2 -1 -1 -1 -1 -0 1 1 1 1 -0 -1 -1 -1 -1 -0 -0 0 0 0 0 -0
1 1 1 0 1 1 0 -0 0 1 1 1 1 0 -0 -1 -2 -2 -2 -2 -2 -2 -2 -1 -1 -1 -1 0 1 2 1 1 0 -0 -1 -1 -1 -0 -0 0 0 0 -0 -0
1 1 1 1 1 1 -0 -1 -1 -0 -1 -1 -1 0 0 -1 -2 -2 -2 -2 -2 -2 -2 -2 -1 -1 -1 0 1 2 2 1 1 -0 -0 -0 -0 -0 -0 -0 -0 -0 -0 -0
1 1 1 1 1 1 0 -0 -1 -1 -1 -1 -0 0 0 -1 -1 -1 -1 -1 -2 -2 -2 -2 -1 -1 -1 0 1 2 2 1 1 0 -0 0 -0 -0 -1 -0 -0 -0 -0 -1
1 1 1 1 2 2 2 0 -0 -0 0 0 0 0 -0 -1 -1 -0 -0 -1 -2 -2 -3 -2 -2 -1 -1 -0 1 2 2 1 1 -0 -0 -0 -1 -1 -1 -1 -1 -1 -1 -1
1 1 1 2 2 3 3 2 1 1 1 1 0 -0 -1 -1 -0 -0 -0 -1 -2 -3 -3 -3 -2 -2 -1 -0 1 2 2 1 0 -0 -1 -1 -1 -1 -1 -1 -1 -1 -1 -1
1 1 1 2 2 3 3 3 3 3 2 1 1 -0 -0 -0 -1 -1 -1 -1 -2 -3 -3 -3 -3 -2 -2 -1 1 2 2 1 0 -1 -1 -1 -1 -2 -1 -1 -1 -1 -1 -1
1 1 1 1 1 2 3 4 4 4 3 2 1 1 0 -0 -0 -1 -2 -2 -2 -3 -3 -3 -3 -3 -2 -1 0 1 2 1 0 -1 -1 -1 -2 -2 -1 -1 -1 -1 -1 -1
2 2 1 1 1 2 2 4 4 4 3 3 2 2 1 1 0 -1 -2 -2 -3 -3 -3 -3 -4 -3 -3 -2 -0 1 1 1 0 -1 -1 -1 -2 -2 -1 -1 -0 -1 -1 -1
2 2 1 1 2 1 2 3 4 4 3 3 3 2 2 2 1 0 -1 -2 -3 -3 -3 -4 -4 -4 -4 -2 -1 1 1 1 -0 -1 -1 -1 -2 -2 -1 -1 -0 -0 -0 -1